Terminal Aerodrome Forecast
Issued by NWS Bismarck, ND

Home | Current Version | Previous Version | Text Only | Print | Product List | Glossary Off
Versions: 1 2 3 4 5 6 7 8 9 10 11 12 13 14 15 16 17 18 19 20

000
FTUS43 KBIS 241100
TAFISN
TAF
KISN 241127Z 2412/2512 03007KT P6SM VCSH SCT018 BKN130
     FM241400 VRB06KT 4SM -RASN BR BKN020 OVC035
     FM241600 34014KT 1SM -SN BKN012 OVC020
     FM241800 32019G27KT 3/4SM -SN BR OVC015
     FM250100 32018G26KT P6SM BKN018 OVC025=

USA.gov is the U.S. government's official web portal to all federal, state and local government web resources and services.